NORTHEAST SUFFOLK  -  Frost Advisory Frost Advisory     Special Weather Statement Special Weather Statement        NORTHERN NASSAU  -  Frost Advisory Frost Advisory     Special Weather Statement Special Weather Statement        NORTHWEST SUFFOLK  -  Frost Advisory Frost Advisory     Special Weather Statement Special Weather Statement        SOUTHEAST SUFFOLK  -  Frost Advisory Frost Advisory     Special Weather Statement Special Weather Statement        SOUTHERN NASSAU  -  Frost Advisory Frost Advisory     Special Weather Statement Special Weather Statement        SOUTHWEST SUFFOLK  -  Frost Advisory Frost Advisory     Special Weather Statement Special Weather Statement        NORTHERN QUEENS  -  Special Weather Statement Special Weather Statement        SOUTHERN QUEENS  -  Special Weather Statement Special Weather Statement      

Active alerts

Northern Nassau
  Details for Northern Nassau Frost Advisory  +1 additional alert
Southern Nassau
  Details for Southern Nassau Frost Advisory  +1 additional alert
Northwest Suffolk
  Details for Northwest Suffolk Frost Advisory  +1 additional alert
Southwest Suffolk
  Details for Southwest Suffolk Frost Advisory  +1 additional alert
Northeast Suffolk
  Details for Northeast Suffolk Frost Advisory  +1 additional alert
Southeast Suffolk
  Details for Southeast Suffolk Frost Advisory  +1 additional alert
Northern Queens
  Details for Northern Queens Special Weather Statement
Southern Queens
  Details for Southern Queens Special Weather Statement


WXM80 ListenWXM80 Stop

You find our weather info also at:

UK Metoffice

WeatherCloud

Weather Underground

Northeastern Weather Network

AWEKAS

Citizen Weather Observer Program (CWOP)

HAMweather, WeatherForYou, PWS Weather


Weather Underground History page Text

Daily Summary for July 28, 2017 Units:  Both    English   Metric
« Previous Day
Next Day »
Daily Weekly Monthly Yearly Custom
  High: Low: Average:
Temperature: 86.7 °F /  30.4 °C 67.4 °F /  19.7 °C 76 °F /  24.4 °C
Dew Point: 73.5 °F /  23.1 °C 65.6 °F /  18.7 °C 69.2 °F /  20.7 °C
Humidity: 97 % 57 % 81 %
Wind Speed: 3.6 mph /  5.8 km/h - 0.3 mph /  0.5 km/h
Wind Gust: 6.9 mph /  11.1 km/h - -
Wind:- - SE
Pressure: 29.83 in /  1010 hPa 29.73 in /  1006.7 hPa -
Precipitation: 0.00 in /  0 mm    
Historical Graphs
 
 
Tabular Data for July 28, 2017
Time Temperature Dew Point Pressure Wind Wind Speed Wind Gust Humidity Rainfall Rate (Hourly)
00:02 72.6 °F /  22.6 °C 70.1 °F /  21.2 °C 29.82 in /  1009.7 hPa Calm   3.5 mph /  5.6 km/h 92 % 0.00 in /  0 mm
00:07 72.6 °F /  22.6 °C 70.1 °F /  21.2 °C 29.82 in /  1009.7 hPa Calm   1.2 mph /  1.9 km/h 92 % 0.00 in /  0 mm
00:12 72.6 °F /  22.6 °C 70.1 °F /  21.2 °C 29.82 in /  1009.7 hPa Calm   1.2 mph /  1.9 km/h 92 % 0.00 in /  0 mm
00:17 72.6 °F /  22.6 °C 70.1 °F /  21.2 °C 29.82 in /  1009.7 hPa SW 1.6 mph /  2.6 km/h 1.6 mph /  2.6 km/h 92 % 0.00 in /  0 mm
00:22 72.6 °F /  22.6 °C 70.1 °F /  21.2 °C 29.82 in /  1009.7 hPa SW 0.8 mph /  1.3 km/h 2.3 mph /  3.7 km/h 92 % 0.00 in /  0 mm
00:27 72.6 °F /  22.6 °C 70.1 °F /  21.2 °C 29.82 in /  1009.7 hPa Calm     92 % 0.00 in /  0 mm
00:32 72.5 °F /  22.5 °C 70.0 °F /  21.1 °C 29.82 in /  1009.7 hPa Calm     92 % 0.00 in /  0 mm
00:37 72.6 °F /  22.6 °C 70.1 °F /  21.2 °C 29.82 in /  1009.7 hPa Calm   2.3 mph /  3.7 km/h 92 % 0.00 in /  0 mm
00:42 72.6 °F /  22.6 °C 70.1 °F /  21.2 °C 29.82 in /  1009.7 hPa Calm     92 % 0.00 in /  0 mm
00:47 72.5 °F /  22.5 °C 70.0 °F /  21.1 °C 29.82 in /  1009.7 hPa SW 0.1 mph /  0.2 km/h 1.2 mph /  1.9 km/h 92 % 0.00 in /  0 mm
00:52 72.5 °F /  22.5 °C 70.0 °F /  21.1 °C 29.82 in /  1009.7 hPa Calm     92 % 0.00 in /  0 mm
00:57 72.5 °F /  22.5 °C 70.0 °F /  21.1 °C 29.82 in /  1009.7 hPa Calm     92 % 0.00 in /  0 mm
01:02 72.5 °F /  22.5 °C 70.0 °F /  21.1 °C 29.82 in /  1009.7 hPa SW 0.1 mph /  0.2 km/h   92 % 0.00 in /  0 mm
01:07 72.5 °F /  22.5 °C 70.0 °F /  21.1 °C 29.82 in /  1009.7 hPa SW 0.7 mph /  1.1 km/h 2.0 mph /  3.2 km/h 92 % 0.00 in /  0 mm
01:12 72.4 °F /  22.4 °C 69.9 °F /  21.1 °C 29.82 in /  1009.7 hPa Calm   1.2 mph /  1.9 km/h 92 % 0.00 in /  0 mm
01:17 72.4 °F /  22.4 °C 69.9 °F /  21.1 °C 29.82 in /  1009.7 hPa Calm     92 % 0.00 in /  0 mm
01:22 72.4 °F /  22.4 °C 69.9 °F /  21.1 °C 29.82 in /  1009.7 hPa Calm     92 % 0.00 in /  0 mm
01:28 72.3 °F /  22.4 °C 69.8 °F /  21 °C 29.82 in /  1009.7 hPa Calm     92 % 0.00 in /  0 mm
01:33 72.2 °F /  22.3 °C 69.7 °F /  20.9 °C 29.81 in /  1009.4 hPa Calm     92 % 0.00 in /  0 mm
01:38 72.2 °F /  22.3 °C 69.7 °F /  20.9 °C 29.82 in /  1009.7 hPa Calm     92 % 0.00 in /  0 mm
01:43 72.1 °F /  22.3 °C 69.6 °F /  20.9 °C 29.82 in /  1009.7 hPa Calm     92 % 0.00 in /  0 mm
01:48 72.1 °F /  22.3 °C 69.6 °F /  20.9 °C 29.82 in /  1009.7 hPa Calm     92 % 0.00 in /  0 mm
01:53 71.9 °F /  22.2 °C 69.4 °F /  20.8 °C 29.81 in /  1009.4 hPa Calm     92 % 0.00 in /  0 mm
01:58 71.9 °F /  22.2 °C 69.4 °F /  20.8 °C 29.82 in /  1009.7 hPa Calm     92 % 0.00 in /  0 mm
02:03 71.7 °F /  22.1 °C 69.3 °F /  20.7 °C 29.81 in /  1009.4 hPa Calm     92 % 0.00 in /  0 mm
02:08 71.6 °F /  22 °C 69.2 °F /  20.7 °C 29.81 in /  1009.4 hPa Calm     92 % 0.00 in /  0 mm
02:13 71.5 °F /  21.9 °C 69.1 °F /  20.6 °C 29.81 in /  1009.4 hPa Calm     92 % 0.00 in /  0 mm
02:18 71.4 °F /  21.9 °C 69.0 °F /  20.6 °C 29.81 in /  1009.4 hPa Calm     92 % 0.00 in /  0 mm
02:23 71.3 °F /  21.8 °C 68.9 °F /  20.5 °C 29.81 in /  1009.4 hPa Calm     92 % 0.00 in /  0 mm
02:28 71.1 °F /  21.7 °C 68.7 °F /  20.4 °C 29.81 in /  1009.4 hPa Calm     92 % 0.00 in /  0 mm
02:33 71.0 °F /  21.7 °C 68.6 °F /  20.3 °C 29.81 in /  1009.4 hPa Calm     92 % 0.00 in /  0 mm
02:38 70.8 °F /  21.6 °C 68.4 °F /  20.2 °C 29.81 in /  1009.4 hPa Calm     92 % 0.00 in /  0 mm
02:43 70.7 °F /  21.5 °C 68.3 °F /  20.2 °C 29.81 in /  1009.4 hPa Calm     92 % 0.00 in /  0 mm
02:48 70.6 °F /  21.4 °C 68.2 °F /  20.1 °C 29.80 in /  1009 hPa Calm     92 % 0.00 in /  0 mm
02:53 70.4 °F /  21.3 °C 68.0 °F /  20 °C 29.81 in /  1009.4 hPa Calm     92 % 0.00 in /  0 mm
02:58 70.3 °F /  21.3 °C 67.9 °F /  19.9 °C 29.80 in /  1009 hPa Calm     92 % 0.00 in /  0 mm
03:03 70.2 °F /  21.2 °C 68.1 °F /  20.1 °C 29.80 in /  1009 hPa Calm     93 % 0.00 in /  0 mm
03:08 70.1 °F /  21.2 °C 68.0 °F /  20 °C 29.80 in /  1009 hPa Calm     93 % 0.00 in /  0 mm
03:13 70.0 °F /  21.1 °C 67.9 °F /  19.9 °C 29.80 in /  1009 hPa Calm     93 % 0.00 in /  0 mm
03:18 69.9 °F /  21.1 °C 67.8 °F /  19.9 °C 29.80 in /  1009 hPa Calm     93 % 0.00 in /  0 mm
03:34 69.5 °F /  20.8 °C 67.4 °F /  19.7 °C 29.80 in /  1009 hPa Calm     93 % 0.00 in /  0 mm
03:39 69.4 °F /  20.8 °C 67.3 °F /  19.6 °C 29.80 in /  1009 hPa Calm     93 % 0.00 in /  0 mm
03:44 69.3 °F /  20.7 °C 67.2 °F /  19.6 °C 29.80 in /  1009 hPa Calm     93 % 0.00 in /  0 mm
03:49 69.2 °F /  20.7 °C 67.1 °F /  19.5 °C 29.79 in /  1008.7 hPa Calm     93 % 0.00 in /  0 mm
03:54 69.1 °F /  20.6 °C 67.0 °F /  19.4 °C 29.80 in /  1009 hPa Calm     93 % 0.00 in /  0 mm
03:59 69.1 °F /  20.6 °C 67.0 °F /  19.4 °C 29.79 in /  1008.7 hPa Calm     93 % 0.00 in /  0 mm
04:04 69.0 °F /  20.6 °C 66.9 °F /  19.4 °C 29.79 in /  1008.7 hPa Calm     93 % 0.00 in /  0 mm
04:09 69.0 °F /  20.6 °C 66.9 °F /  19.4 °C 29.80 in /  1009 hPa Calm     93 % 0.00 in /  0 mm
04:19 68.8 °F /  20.4 °C 67.0 °F /  19.4 °C 29.80 in /  1009 hPa Calm     94 % 0.00 in /  0 mm
04:24 68.7 °F /  20.4 °C 66.9 °F /  19.4 °C 29.80 in /  1009 hPa Calm     94 % 0.00 in /  0 mm
04:29 68.6 °F /  20.3 °C 66.8 °F /  19.3 °C 29.80 in /  1009 hPa Calm     94 % 0.00 in /  0 mm
04:34 68.6 °F /  20.3 °C 66.5 °F /  19.2 °C 29.80 in /  1009 hPa Calm     93 % 0.00 in /  0 mm
04:39 68.5 °F /  20.3 °C 66.4 °F /  19.1 °C 29.80 in /  1009 hPa Calm     93 % 0.00 in /  0 mm
04:44 68.4 °F /  20.2 °C 66.3 °F /  19.1 °C 29.80 in /  1009 hPa Calm     93 % 0.00 in /  0 mm
04:49 68.3 °F /  20.2 °C 66.2 °F /  19 °C 29.80 in /  1009 hPa Calm     93 % 0.00 in /  0 mm
04:54 68.2 °F /  20.1 °C 66.4 °F /  19.1 °C 29.80 in /  1009 hPa Calm     94 % 0.00 in /  0 mm
04:59 68.1 °F /  20.1 °C 66.3 °F /  19.1 °C 29.80 in /  1009 hPa Calm     94 % 0.00 in /  0 mm
05:04 68.1 °F /  20.1 °C 66.3 °F /  19.1 °C 29.80 in /  1009 hPa Calm     94 % 0.00 in /  0 mm
05:09 68.0 °F /  20 °C 66.2 °F /  19 °C 29.80 in /  1009 hPa Calm     94 % 0.00 in /  0 mm
05:14 67.9 °F /  19.9 °C 65.8 °F /  18.8 °C 29.80 in /  1009 hPa Calm     93 % 0.00 in /  0 mm
05:19 67.9 °F /  19.9 °C 66.1 °F /  18.9 °C 29.81 in /  1009.4 hPa Calm     94 % 0.00 in /  0 mm
05:22 67.9 °F /  19.9 °C 66.1 °F /  18.9 °C 29.80 in /  1009 hPa Calm     94 % 0.00 in /  0 mm
05:27 67.8 °F /  19.9 °C 66.0 °F /  18.9 °C 29.80 in /  1009 hPa Calm     94 % 0.00 in /  0 mm
05:32 67.7 °F /  19.8 °C 65.9 °F /  18.8 °C 29.80 in /  1009 hPa Calm     94 % 0.00 in /  0 mm
05:37 67.7 °F /  19.8 °C 65.9 °F /  18.8 °C 29.80 in /  1009 hPa Calm     94 % 0.00 in /  0 mm
05:42 67.6 °F /  19.8 °C 65.8 °F /  18.8 °C 29.81 in /  1009.4 hPa Calm     94 % 0.00 in /  0 mm
05:47 67.6 °F /  19.8 °C 65.8 °F /  18.8 °C 29.81 in /  1009.4 hPa Calm     94 % 0.00 in /  0 mm
05:52 67.5 °F /  19.7 °C 65.7 °F /  18.7 °C 29.81 in /  1009.4 hPa Calm     94 % 0.00 in /  0 mm
05:57 67.5 °F /  19.7 °C 65.7 °F /  18.7 °C 29.81 in /  1009.4 hPa Calm     94 % 0.00 in /  0 mm
06:02 67.4 °F /  19.7 °C 65.6 °F /  18.7 °C 29.81 in /  1009.4 hPa Calm     94 % 0.00 in /  0 mm
06:07 67.4 °F /  19.7 °C 65.6 °F /  18.7 °C 29.81 in /  1009.4 hPa Calm     94 % 0.00 in /  0 mm
06:12 67.4 °F /  19.7 °C 65.6 °F /  18.7 °C 29.81 in /  1009.4 hPa Calm     94 % 0.00 in /  0 mm
06:17 67.4 °F /  19.7 °C 65.6 °F /  18.7 °C 29.81 in /  1009.4 hPa Calm     94 % 0.00 in /  0 mm
06:22 67.4 °F /  19.7 °C 65.6 °F /  18.7 °C 29.81 in /  1009.4 hPa Calm     94 % 0.00 in /  0 mm
06:27 67.4 °F /  19.7 °C 65.9 °F /  18.8 °C 29.81 in /  1009.4 hPa Calm     95 % 0.00 in /  0 mm
06:32 67.4 °F /  19.7 °C 65.9 °F /  18.8 °C 29.81 in /  1009.4 hPa Calm     95 % 0.00 in /  0 mm
06:37 67.4 °F /  19.7 °C 65.9 °F /  18.8 °C 29.81 in /  1009.4 hPa Calm     95 % 0.00 in /  0 mm
06:42 67.6 °F /  19.8 °C 66.1 °F /  18.9 °C 29.81 in /  1009.4 hPa Calm     95 % 0.00 in /  0 mm
06:47 67.6 °F /  19.8 °C 66.1 °F /  18.9 °C 29.81 in /  1009.4 hPa NNE 0.3 mph /  0.5 km/h 1.2 mph /  1.9 km/h 95 % 0.00 in /  0 mm
06:57 68.1 °F /  20.1 °C 66.9 °F /  19.4 °C 29.81 in /  1009.4 hPa NW 0.2 mph /  0.3 km/h 1.2 mph /  1.9 km/h 96 % 0.00 in /  0 mm
07:02 68.5 °F /  20.3 °C 67.3 °F /  19.6 °C 29.82 in /  1009.7 hPa Calm     96 % 0.00 in /  0 mm
07:07 68.8 °F /  20.4 °C 67.9 °F /  19.9 °C 29.82 in /  1009.7 hPa NW 0.8 mph /  1.3 km/h 2.3 mph /  3.7 km/h 97 % 0.00 in /  0 mm
07:12 69.2 °F /  20.7 °C 68.3 °F /  20.2 °C 29.81 in /  1009.4 hPa NNW 1.3 mph /  2.1 km/h 3.5 mph /  5.6 km/h 97 % 0.00 in /  0 mm
07:17 69.5 °F /  20.8 °C 68.6 °F /  20.3 °C 29.82 in /  1009.7 hPa NNW 1.4 mph /  2.3 km/h 4.0 mph /  6.4 km/h 97 % 0.00 in /  0 mm
07:22 69.7 °F /  20.9 °C 68.8 °F /  20.4 °C 29.81 in /  1009.4 hPa NE 1.5 mph /  2.4 km/h 4.0 mph /  6.4 km/h 97 % 0.00 in /  0 mm
07:27 69.9 °F /  21.1 °C 69.0 °F /  20.6 °C 29.81 in /  1009.4 hPa NNE 2.0 mph /  3.2 km/h 2.0 mph /  3.2 km/h 97 % 0.00 in /  0 mm
07:32 70.1 °F /  21.2 °C 69.2 °F /  20.7 °C 29.81 in /  1009.4 hPa North 0.9 mph /  1.4 km/h 3.0 mph /  4.8 km/h 97 % 0.00 in /  0 mm
07:42 70.5 °F /  21.4 °C 69.6 °F /  20.9 °C 29.81 in /  1009.4 hPa North 1.2 mph /  1.9 km/h 2.3 mph /  3.7 km/h 97 % 0.00 in /  0 mm
07:47 70.6 °F /  21.4 °C 69.7 °F /  20.9 °C 29.81 in /  1009.4 hPa NNE 2.4 mph /  3.9 km/h 3.5 mph /  5.6 km/h 97 % 0.00 in /  0 mm
07:52 70.7 °F /  21.5 °C 69.8 °F /  21 °C 29.81 in /  1009.4 hPa NE 0.1 mph /  0.2 km/h 3.5 mph /  5.6 km/h 97 % 0.00 in /  0 mm
07:57 70.8 °F /  21.6 °C 69.9 °F /  21.1 °C 29.81 in /  1009.4 hPa North 0.9 mph /  1.4 km/h 1.2 mph /  1.9 km/h 97 % 0.00 in /  0 mm
08:02 70.8 °F /  21.6 °C 69.9 °F /  21.1 °C 29.82 in /  1009.7 hPa North 0.9 mph /  1.4 km/h 3.0 mph /  4.8 km/h 97 % 0.00 in /  0 mm
08:07 70.8 °F /  21.6 °C 69.9 °F /  21.1 °C 29.83 in /  1010 hPa North 0.9 mph /  1.4 km/h 2.0 mph /  3.2 km/h 97 % 0.00 in /  0 mm
08:12 70.8 °F /  21.6 °C 69.9 °F /  21.1 °C 29.83 in /  1010 hPa Calm   1.2 mph /  1.9 km/h 97 % 0.00 in /  0 mm
08:17 70.8 °F /  21.6 °C 69.9 °F /  21.1 °C 29.82 in /  1009.7 hPa North 0.1 mph /  0.2 km/h 2.3 mph /  3.7 km/h 97 % 0.00 in /  0 mm
08:22 70.8 °F /  21.6 °C 69.9 °F /  21.1 °C 29.82 in /  1009.7 hPa North 0.7 mph /  1.1 km/h 3.5 mph /  5.6 km/h 97 % 0.00 in /  0 mm
08:27 70.9 °F /  21.6 °C 70.0 °F /  21.1 °C 29.82 in /  1009.7 hPa North 2.1 mph /  3.4 km/h 3.5 mph /  5.6 km/h 97 % 0.00 in /  0 mm
08:33 71.0 °F /  21.7 °C 70.1 °F /  21.2 °C 29.82 in /  1009.7 hPa NNE 0.6 mph /  1 km/h 3.5 mph /  5.6 km/h 97 % 0.00 in /  0 mm
08:38 71.2 °F /  21.8 °C 70.3 °F /  21.3 °C 29.82 in /  1009.7 hPa NNE 0.2 mph /  0.3 km/h 1.2 mph /  1.9 km/h 97 % 0.00 in /  0 mm
08:43 71.4 °F /  21.9 °C 70.5 °F /  21.4 °C 29.82 in /  1009.7 hPa NNE 0.1 mph /  0.2 km/h 1.2 mph /  1.9 km/h 97 % 0.00 in /  0 mm
08:48 71.6 °F /  22 °C 70.4 °F /  21.3 °C 29.82 in /  1009.7 hPa Calm   1.2 mph /  1.9 km/h 96 % 0.00 in /  0 mm
08:53 71.7 °F /  22.1 °C 70.5 °F /  21.4 °C 29.82 in /  1009.7 hPa NNE 1.1 mph /  1.8 km/h 3.5 mph /  5.6 km/h 96 % 0.00 in /  0 mm
08:58 71.8 °F /  22.1 °C 70.6 °F /  21.4 °C 29.82 in /  1009.7 hPa Calm     96 % 0.00 in /  0 mm
09:03 72.0 °F /  22.2 °C 70.8 °F /  21.6 °C 29.82 in /  1009.7 hPa NNE 0.3 mph /  0.5 km/h 2.3 mph /  3.7 km/h 96 % 0.00 in /  0 mm
09:08 72.3 °F /  22.4 °C 70.8 °F /  21.6 °C 29.81 in /  1009.4 hPa NE 0.1 mph /  0.2 km/h 1.2 mph /  1.9 km/h 95 % 0.00 in /  0 mm
09:13 72.6 °F /  22.6 °C 70.8 °F /  21.6 °C 29.81 in /  1009.4 hPa Calm   1.2 mph /  1.9 km/h 94 % 0.00 in /  0 mm
09:18 72.9 °F /  22.7 °C 71.1 °F /  21.7 °C 29.81 in /  1009.4 hPa NE 1.9 mph /  3.1 km/h 3.5 mph /  5.6 km/h 94 % 0.00 in /  0 mm
09:23 73.1 °F /  22.8 °C 70.6 °F /  21.4 °C 29.81 in /  1009.4 hPa ENE 3.6 mph /  5.8 km/h 6.9 mph /  11.1 km/h 92 % 0.00 in /  0 mm
09:28 73.3 °F /  22.9 °C 70.5 °F /  21.4 °C 29.81 in /  1009.4 hPa North 2.1 mph /  3.4 km/h 3.5 mph /  5.6 km/h 91 % 0.00 in /  0 mm
09:33 73.5 °F /  23.1 °C 70.7 °F /  21.5 °C 29.81 in /  1009.4 hPa NE 1.6 mph /  2.6 km/h 3.5 mph /  5.6 km/h 91 % 0.00 in /  0 mm
09:38 73.6 °F /  23.1 °C 70.8 °F /  21.6 °C 29.81 in /  1009.4 hPa NE 1.1 mph /  1.8 km/h 2.3 mph /  3.7 km/h 91 % 0.00 in /  0 mm
09:43 73.8 °F /  23.2 °C 71.0 °F /  21.7 °C 29.81 in /  1009.4 hPa WNW 0.2 mph /  0.3 km/h 1.2 mph /  1.9 km/h 91 % 0.00 in /  0 mm
09:48 74.0 °F /  23.3 °C 70.9 °F /  21.6 °C 29.81 in /  1009.4 hPa NW 1.3 mph /  2.1 km/h 3.5 mph /  5.6 km/h 90 % 0.00 in /  0 mm
09:53 74.2 °F /  23.4 °C 71.1 °F /  21.7 °C 29.81 in /  1009.4 hPa ENE 2.2 mph /  3.5 km/h 3.5 mph /  5.6 km/h 90 % 0.00 in /  0 mm
09:58 74.6 °F /  23.7 °C 71.5 °F /  21.9 °C 29.81 in /  1009.4 hPa North 2.1 mph /  3.4 km/h 3.5 mph /  5.6 km/h 90 % 0.00 in /  0 mm
10:03 74.9 °F /  23.8 °C 71.4 °F /  21.9 °C 29.81 in /  1009.4 hPa NE 1.1 mph /  1.8 km/h 3.5 mph /  5.6 km/h 89 % 0.00 in /  0 mm
10:08 75.4 °F /  24.1 °C 71.6 °F /  22 °C 29.81 in /  1009.4 hPa ENE 0.4 mph /  0.6 km/h 1.2 mph /  1.9 km/h 88 % 0.00 in /  0 mm
10:13 76.0 °F /  24.4 °C 71.8 °F /  22.1 °C 29.81 in /  1009.4 hPa Calm     87 % 0.00 in /  0 mm
10:23 77.5 °F /  25.3 °C 72.3 °F /  22.4 °C 29.81 in /  1009.4 hPa NE 1.4 mph /  2.3 km/h 4.6 mph /  7.4 km/h 84 % 0.00 in /  0 mm
10:34 78.5 °F /  25.8 °C 72.9 °F /  22.7 °C 29.81 in /  1009.4 hPa Calm   1.2 mph /  1.9 km/h 83 % 0.00 in /  0 mm
10:39 78.9 °F /  26.1 °C 72.6 °F /  22.6 °C 29.82 in /  1009.7 hPa NE 0.8 mph /  1.3 km/h 2.3 mph /  3.7 km/h 81 % 0.00 in /  0 mm
10:44 79.3 °F /  26.3 °C 72.6 °F /  22.6 °C 29.82 in /  1009.7 hPa NE 0.5 mph /  0.8 km/h 3.5 mph /  5.6 km/h 80 % 0.00 in /  0 mm
10:49 79.6 °F /  26.4 °C 72.9 °F /  22.7 °C 29.81 in /  1009.4 hPa NE 0.1 mph /  0.2 km/h 1.2 mph /  1.9 km/h 80 % 0.00 in /  0 mm
10:59 80.5 °F /  26.9 °C 73.4 °F /  23 °C 29.81 in /  1009.4 hPa Calm   1.2 mph /  1.9 km/h 79 % 0.00 in /  0 mm
11:04 81.0 °F /  27.2 °C 73.5 °F /  23.1 °C 29.81 in /  1009.4 hPa ENE 0.1 mph /  0.2 km/h 1.2 mph /  1.9 km/h 78 % 0.00 in /  0 mm
11:09 81.4 °F /  27.4 °C 72.3 °F /  22.4 °C 29.81 in /  1009.4 hPa Calm   1.2 mph /  1.9 km/h 74 % 0.00 in /  0 mm
11:14 81.2 °F /  27.3 °C 70.9 °F /  21.6 °C 29.82 in /  1009.7 hPa NE 0.6 mph /  1 km/h 2.3 mph /  3.7 km/h 71 % 0.00 in /  0 mm
11:19 81.1 °F /  27.3 °C 71.2 °F /  21.8 °C 29.82 in /  1009.7 hPa NE 1.6 mph /  2.6 km/h 3.5 mph /  5.6 km/h 72 % 0.00 in /  0 mm
11:24 81.2 °F /  27.3 °C 71.7 °F /  22.1 °C 29.82 in /  1009.7 hPa NE 0.4 mph /  0.6 km/h 1.2 mph /  1.9 km/h 73 % 0.00 in /  0 mm
11:29 81.4 °F /  27.4 °C 71.5 °F /  21.9 °C 29.81 in /  1009.4 hPa Calm   1.2 mph /  1.9 km/h 72 % 0.00 in /  0 mm
11:34 81.7 °F /  27.6 °C 72.2 °F /  22.3 °C 29.82 in /  1009.7 hPa NE 0.1 mph /  0.2 km/h 1.0 mph /  1.6 km/h 73 % 0.00 in /  0 mm
11:39 82.0 °F /  27.8 °C 71.2 °F /  21.8 °C 29.82 in /  1009.7 hPa NE 0.5 mph /  0.8 km/h 1.2 mph /  1.9 km/h 70 % 0.00 in /  0 mm
11:44 82.1 °F /  27.8 °C 71.3 °F /  21.8 °C 29.82 in /  1009.7 hPa SE 0.7 mph /  1.1 km/h 2.3 mph /  3.7 km/h 70 % 0.00 in /  0 mm
11:46 82.1 °F /  27.8 °C 71.3 °F /  21.8 °C 29.82 in /  1009.7 hPa ESE 0.9 mph /  1.4 km/h 2.0 mph /  3.2 km/h 70 % 0.00 in /  0 mm
11:51 82.2 °F /  27.9 °C 71.4 °F /  21.9 °C 29.82 in /  1009.7 hPa WSW 0.2 mph /  0.3 km/h 2.3 mph /  3.7 km/h 70 % 0.00 in /  0 mm
11:56 82.3 °F /  27.9 °C 70.7 °F /  21.5 °C 29.82 in /  1009.7 hPa NNE 1.2 mph /  1.9 km/h 3.5 mph /  5.6 km/h 68 % 0.00 in /  0 mm
12:01 82.3 °F /  27.9 °C 72.0 °F /  22.2 °C 29.81 in /  1009.4 hPa SSE 0.1 mph /  0.2 km/h 1.2 mph /  1.9 km/h 71 % 0.00 in /  0 mm
12:06 82.3 °F /  27.9 °C 71.5 °F /  21.9 °C 29.81 in /  1009.4 hPa ENE 0.2 mph /  0.3 km/h 2.0 mph /  3.2 km/h 70 % 0.00 in /  0 mm
12:12 82.3 °F /  27.9 °C 71.1 °F /  21.7 °C 29.81 in /  1009.4 hPa ENE 0.1 mph /  0.2 km/h 1.2 mph /  1.9 km/h 69 % 0.00 in /  0 mm
12:17 82.2 °F /  27.9 °C 71.0 °F /  21.7 °C 29.82 in /  1009.7 hPa ENE 0.1 mph /  0.2 km/h 1.2 mph /  1.9 km/h 69 % 0.00 in /  0 mm
12:20 82.1 °F /  27.8 °C 70.9 °F /  21.6 °C 29.81 in /  1009.4 hPa ENE 0.1 mph /  0.2 km/h 1.2 mph /  1.9 km/h 69 % 0.00 in /  0 mm
12:25 81.8 °F /  27.7 °C 70.2 °F /  21.2 °C 29.81 in /  1009.4 hPa NNW 0.2 mph /  0.3 km/h 1.2 mph /  1.9 km/h 68 % 0.00 in /  0 mm
12:30 81.7 °F /  27.6 °C 70.5 °F /  21.4 °C 29.81 in /  1009.4 hPa Calm   1.2 mph /  1.9 km/h 69 % 0.00 in /  0 mm
12:35 81.6 °F /  27.6 °C 70.0 °F /  21.1 °C 29.81 in /  1009.4 hPa Calm   1.2 mph /  1.9 km/h 68 % 0.00 in /  0 mm
12:40 81.5 °F /  27.5 °C 69.9 °F /  21.1 °C 29.81 in /  1009.4 hPa NNW 0.1 mph /  0.2 km/h 1.2 mph /  1.9 km/h 68 % 0.00 in /  0 mm
12:45 81.5 °F /  27.5 °C 70.3 °F /  21.3 °C 29.81 in /  1009.4 hPa NNW 0.1 mph /  0.2 km/h 1.2 mph /  1.9 km/h 69 % 0.00 in /  0 mm
12:50 81.5 °F /  27.5 °C 69.5 °F /  20.8 °C 29.81 in /  1009.4 hPa NNW 0.2 mph /  0.3 km/h 1.2 mph /  1.9 km/h 67 % 0.00 in /  0 mm
12:55 81.5 °F /  27.5 °C 68.6 °F /  20.3 °C 29.80 in /  1009 hPa NNE 0.2 mph /  0.3 km/h 1.2 mph /  1.9 km/h 65 % 0.00 in /  0 mm
13:00 81.7 °F /  27.6 °C 70.1 °F /  21.2 °C 29.80 in /  1009 hPa Calm   1.2 mph /  1.9 km/h 68 % 0.00 in /  0 mm
13:05 81.9 °F /  27.7 °C 69.0 °F /  20.6 °C 29.80 in /  1009 hPa NE 1.1 mph /  1.8 km/h 2.3 mph /  3.7 km/h 65 % 0.00 in /  0 mm
13:10 82.0 °F /  27.8 °C 69.5 °F /  20.8 °C 29.80 in /  1009 hPa ENE 1.7 mph /  2.7 km/h 3.5 mph /  5.6 km/h 66 % 0.00 in /  0 mm
13:15 81.9 °F /  27.7 °C 69.4 °F /  20.8 °C 29.79 in /  1008.7 hPa NE 1.6 mph /  2.6 km/h 3.5 mph /  5.6 km/h 66 % 0.00 in /  0 mm
13:20 81.8 °F /  27.7 °C 70.2 °F /  21.2 °C 29.79 in /  1008.7 hPa Calm     68 % 0.00 in /  0 mm
13:25 81.8 °F /  27.7 °C 69.8 °F /  21 °C 29.79 in /  1008.7 hPa NE 2.4 mph /  3.9 km/h 4.0 mph /  6.4 km/h 67 % 0.00 in /  0 mm
13:30 81.7 °F /  27.6 °C 68.8 °F /  20.4 °C 29.79 in /  1008.7 hPa ENE 3.2 mph /  5.1 km/h 4.0 mph /  6.4 km/h 65 % 0.00 in /  0 mm
13:35 81.6 °F /  27.6 °C 69.1 °F /  20.6 °C 29.79 in /  1008.7 hPa NE 0.5 mph /  0.8 km/h 3.5 mph /  5.6 km/h 66 % 0.00 in /  0 mm
13:40 81.7 °F /  27.6 °C 69.7 °F /  20.9 °C 29.79 in /  1008.7 hPa NE 0.4 mph /  0.6 km/h 3.0 mph /  4.8 km/h 67 % 0.00 in /  0 mm
13:50 82.1 °F /  27.8 °C 70.5 °F /  21.4 °C 29.78 in /  1008.4 hPa North 1.2 mph /  1.9 km/h 4.0 mph /  6.4 km/h 68 % 0.00 in /  0 mm
13:52 82.4 °F /  28 °C 71.2 °F /  21.8 °C 29.79 in /  1008.7 hPa North 0.9 mph /  1.4 km/h 3.5 mph /  5.6 km/h 69 % 0.00 in /  0 mm
13:57 82.9 °F /  28.3 °C 71.3 °F /  21.8 °C 29.79 in /  1008.7 hPa NE 1.8 mph /  2.9 km/h 3.5 mph /  5.6 km/h 68 % 0.00 in /  0 mm
14:02 83.5 °F /  28.6 °C 70.5 °F /  21.4 °C 29.78 in /  1008.4 hPa ENE 1.1 mph /  1.8 km/h 2.3 mph /  3.7 km/h 65 % 0.00 in /  0 mm
14:07 83.9 °F /  28.8 °C 70.4 °F /  21.3 °C 29.79 in /  1008.7 hPa NNW 1.6 mph /  2.6 km/h 3.5 mph /  5.6 km/h 64 % 0.00 in /  0 mm
14:12 84.1 °F /  28.9 °C 69.7 °F /  20.9 °C 29.78 in /  1008.4 hPa SE 0.5 mph /  0.8 km/h 2.0 mph /  3.2 km/h 62 % 0.00 in /  0 mm
14:17 84.4 °F /  29.1 °C 69.5 °F /  20.8 °C 29.78 in /  1008.4 hPa NNE 2.0 mph /  3.2 km/h 4.6 mph /  7.4 km/h 61 % 0.00 in /  0 mm
14:22 84.8 °F /  29.3 °C 70.8 °F /  21.6 °C 29.78 in /  1008.4 hPa NNW 0.2 mph /  0.3 km/h 1.2 mph /  1.9 km/h 63 % 0.00 in /  0 mm
14:27 85.0 °F /  29.4 °C 68.6 °F /  20.3 °C 29.78 in /  1008.4 hPa NE 1.3 mph /  2.1 km/h 3.5 mph /  5.6 km/h 58 % 0.00 in /  0 mm
14:32 85.2 °F /  29.6 °C 70.2 °F /  21.2 °C 29.78 in /  1008.4 hPa NE 2.6 mph /  4.2 km/h 3.5 mph /  5.6 km/h 61 % 0.00 in /  0 mm
14:37 85.6 °F /  29.8 °C 70.6 °F /  21.4 °C 29.78 in /  1008.4 hPa North 1.2 mph /  1.9 km/h 2.3 mph /  3.7 km/h 61 % 0.00 in /  0 mm
14:42 86.0 °F /  30 °C 71.0 °F /  21.7 °C 29.78 in /  1008.4 hPa ESE 0.9 mph /  1.4 km/h 3.5 mph /  5.6 km/h 61 % 0.00 in /  0 mm
14:47 86.3 °F /  30.2 °C 71.3 °F /  21.8 °C 29.78 in /  1008.4 hPa NNE 1.3 mph /  2.1 km/h 3.5 mph /  5.6 km/h 61 % 0.00 in /  0 mm
14:52 86.5 °F /  30.3 °C 70.5 °F /  21.4 °C 29.77 in /  1008 hPa NE 0.7 mph /  1.1 km/h 3.5 mph /  5.6 km/h 59 % 0.00 in /  0 mm
14:53 86.5 °F /  30.3 °C 70.5 °F /  21.4 °C 29.77 in /  1008 hPa NE 0.9 mph /  1.4 km/h 3.5 mph /  5.6 km/h 59 % 0.00 in /  0 mm
14:58 86.7 °F /  30.4 °C 71.2 °F /  21.8 °C 29.77 in /  1008 hPa NNE 0.4 mph /  0.6 km/h 1.2 mph /  1.9 km/h 60 % 0.00 in /  0 mm
15:03 86.7 °F /  30.4 °C 69.6 °F /  20.9 °C 29.77 in /  1008 hPa ENE 2.0 mph /  3.2 km/h 3.5 mph /  5.6 km/h 57 % 0.00 in /  0 mm
15:08 86.6 °F /  30.3 °C 70.1 °F /  21.2 °C 29.77 in /  1008 hPa NNE 2.2 mph /  3.5 km/h 5.0 mph /  8 km/h 58 % 0.00 in /  0 mm
15:13 86.5 °F /  30.3 °C 70.0 °F /  21.1 °C 29.77 in /  1008 hPa North 1.4 mph /  2.3 km/h 3.5 mph /  5.6 km/h 58 % 0.00 in /  0 mm
15:18 86.4 °F /  30.2 °C 70.9 °F /  21.6 °C 29.77 in /  1008 hPa ENE 0.4 mph /  0.6 km/h 2.3 mph /  3.7 km/h 60 % 0.00 in /  0 mm
15:23 85.9 °F /  29.9 °C 70.4 °F /  21.3 °C 29.77 in /  1008 hPa Calm   3.5 mph /  5.6 km/h 60 % 0.00 in /  0 mm
15:28 85.6 °F /  29.8 °C 70.6 °F /  21.4 °C 29.77 in /  1008 hPa North 0.5 mph /  0.8 km/h 2.3 mph /  3.7 km/h 61 % 0.00 in /  0 mm
15:33 85.1 °F /  29.5 °C 69.2 °F /  20.7 °C 29.77 in /  1008 hPa ENE 0.6 mph /  1 km/h 2.3 mph /  3.7 km/h 59 % 0.00 in /  0 mm
15:38 85.0 °F /  29.4 °C 70.5 °F /  21.4 °C 29.77 in /  1008 hPa ENE 0.2 mph /  0.3 km/h 1.2 mph /  1.9 km/h 62 % 0.00 in /  0 mm
15:43 84.7 °F /  29.3 °C 69.8 °F /  21 °C 29.77 in /  1008 hPa ENE 0.1 mph /  0.2 km/h 2.3 mph /  3.7 km/h 61 % 0.00 in /  0 mm
15:48 84.5 °F /  29.2 °C 68.1 °F /  20.1 °C 29.76 in /  1007.7 hPa NNE 0.5 mph /  0.8 km/h 2.0 mph /  3.2 km/h 58 % 0.00 in /  0 mm
15:53 84.5 °F /  29.2 °C 70.0 °F /  21.1 °C 29.76 in /  1007.7 hPa NNE 0.2 mph /  0.3 km/h 1.2 mph /  1.9 km/h 62 % 0.00 in /  0 mm
15:58 84.5 °F /  29.2 °C 69.1 °F /  20.6 °C 29.76 in /  1007.7 hPa NE 0.6 mph /  1 km/h 1.2 mph /  1.9 km/h 60 % 0.00 in /  0 mm
16:03 84.5 °F /  29.2 °C 69.6 °F /  20.9 °C 29.76 in /  1007.7 hPa NE 0.1 mph /  0.2 km/h 1.2 mph /  1.9 km/h 61 % 0.00 in /  0 mm
16:08 84.5 °F /  29.2 °C 69.1 °F /  20.6 °C 29.76 in /  1007.7 hPa Calm   1.2 mph /  1.9 km/h 60 % 0.00 in /  0 mm
16:13 84.5 °F /  29.2 °C 68.6 °F /  20.3 °C 29.76 in /  1007.7 hPa Calm     59 % 0.00 in /  0 mm
16:18 84.3 °F /  29.1 °C 68.9 °F /  20.5 °C 29.76 in /  1007.7 hPa Calm     60 % 0.00 in /  0 mm
16:24 84.0 °F /  28.9 °C 68.6 °F /  20.3 °C 29.75 in /  1007.3 hPa Calm     60 % 0.00 in /  0 mm
16:29 83.8 °F /  28.8 °C 68.9 °F /  20.5 °C 29.75 in /  1007.3 hPa Calm   1.2 mph /  1.9 km/h 61 % 0.00 in /  0 mm
16:34 83.4 °F /  28.6 °C 68.5 °F /  20.3 °C 29.75 in /  1007.3 hPa Calm     61 % 0.00 in /  0 mm
16:39 83.1 °F /  28.4 °C 68.7 °F /  20.4 °C 29.75 in /  1007.3 hPa Calm     62 % 0.00 in /  0 mm
16:44 82.8 °F /  28.2 °C 68.9 °F /  20.5 °C 29.75 in /  1007.3 hPa Calm     63 % 0.00 in /  0 mm
16:49 82.6 °F /  28.1 °C 68.7 °F /  20.4 °C 29.75 in /  1007.3 hPa Calm     63 % 0.00 in /  0 mm
16:54 82.4 °F /  28 °C 67.6 °F /  19.8 °C 29.74 in /  1007 hPa Calm     61 % 0.00 in /  0 mm
16:59 82.3 °F /  27.9 °C 67.5 °F /  19.7 °C 29.74 in /  1007 hPa Calm     61 % 0.00 in /  0 mm
17:04 82.2 °F /  27.9 °C 67.9 °F /  19.9 °C 29.73 in /  1006.7 hPa Calm     62 % 0.00 in /  0 mm
17:06 82.2 °F /  27.9 °C 67.9 °F /  19.9 °C 29.73 in /  1006.7 hPa North 1.0 mph /  1.6 km/h 2.3 mph /  3.7 km/h 62 % 0.00 in /  0 mm
17:11 82.0 °F /  27.8 °C 68.2 °F /  20.1 °C 29.74 in /  1007 hPa North 0.2 mph /  0.3 km/h 1.0 mph /  1.6 km/h 63 % 0.00 in /  0 mm
17:16 82.0 °F /  27.8 °C 68.2 °F /  20.1 °C 29.74 in /  1007 hPa NE 0.6 mph /  1 km/h 1.2 mph /  1.9 km/h 63 % 0.00 in /  0 mm
17:21 81.9 °F /  27.7 °C 67.1 °F /  19.5 °C 29.73 in /  1006.7 hPa Calm     61 % 0.00 in /  0 mm
17:26 82.0 °F /  27.8 °C 67.7 °F /  19.8 °C 29.73 in /  1006.7 hPa Calm     62 % 0.00 in /  0 mm
17:31 82.0 °F /  27.8 °C 67.7 °F /  19.8 °C 29.74 in /  1007 hPa Calm     62 % 0.00 in /  0 mm
17:36 82.0 °F /  27.8 °C 68.2 °F /  20.1 °C 29.74 in /  1007 hPa Calm     63 % 0.00 in /  0 mm
17:42 81.9 °F /  27.7 °C 68.1 °F /  20.1 °C 29.74 in /  1007 hPa Calm     63 % 0.00 in /  0 mm
17:46 81.8 °F /  27.7 °C 68.0 °F /  20 °C 29.73 in /  1006.7 hPa Calm     63 % 0.00 in /  0 mm
17:52 81.7 °F /  27.6 °C 67.9 °F /  19.9 °C 29.73 in /  1006.7 hPa Calm   1.2 mph /  1.9 km/h 63 % 0.00 in /  0 mm
17:57 81.6 °F /  27.6 °C 68.7 °F /  20.4 °C 29.73 in /  1006.7 hPa Calm     65 % 0.00 in /  0 mm
18:02 81.5 °F /  27.5 °C 68.6 °F /  20.3 °C 29.74 in /  1007 hPa Calm     65 % 0.00 in /  0 mm
18:07 81.4 °F /  27.4 °C 68.5 °F /  20.3 °C 29.74 in /  1007 hPa Calm     65 % 0.00 in /  0 mm
18:12 81.3 °F /  27.4 °C 68.9 °F /  20.5 °C 29.74 in /  1007 hPa Calm     66 % 0.00 in /  0 mm
18:17 81.3 °F /  27.4 °C 69.3 °F /  20.7 °C 29.74 in /  1007 hPa Calm     67 % 0.00 in /  0 mm
18:22 81.2 °F /  27.3 °C 68.8 °F /  20.4 °C 29.74 in /  1007 hPa Calm     66 % 0.00 in /  0 mm
18:27 81.1 °F /  27.3 °C 69.5 °F /  20.8 °C 29.73 in /  1006.7 hPa Calm     68 % 0.00 in /  0 mm
18:32 80.9 °F /  27.2 °C 69.8 °F /  21 °C 29.73 in /  1006.7 hPa Calm   1.2 mph /  1.9 km/h 69 % 0.00 in /  0 mm
18:37 80.6 °F /  27 °C 68.6 °F /  20.3 °C 29.73 in /  1006.7 hPa Calm     67 % 0.00 in /  0 mm
18:47 80.2 °F /  26.8 °C 68.7 °F /  20.4 °C 29.73 in /  1006.7 hPa Calm     68 % 0.00 in /  0 mm
18:52 80.0 °F /  26.7 °C 68.9 °F /  20.5 °C 29.73 in /  1006.7 hPa Calm     69 % 0.00 in /  0 mm
18:56 79.8 °F /  26.6 °C 67.9 °F /  19.9 °C 29.74 in /  1007 hPa Calm     67 % 0.00 in /  0 mm
19:01 79.7 °F /  26.5 °C 68.6 °F /  20.3 °C 29.74 in /  1007 hPa Calm     69 % 0.00 in /  0 mm
19:06 79.5 °F /  26.4 °C 68.8 °F /  20.4 °C 29.74 in /  1007 hPa Calm     70 % 0.00 in /  0 mm
19:11 79.2 °F /  26.2 °C 69.0 °F /  20.6 °C 29.74 in /  1007 hPa Calm     71 % 0.00 in /  0 mm
19:16 79.0 °F /  26.1 °C 69.2 °F /  20.7 °C 29.74 in /  1007 hPa Calm     72 % 0.00 in /  0 mm
19:21 78.7 °F /  25.9 °C 68.5 °F /  20.3 °C 29.74 in /  1007 hPa Calm     71 % 0.00 in /  0 mm
19:31 78.3 °F /  25.7 °C 67.7 °F /  19.8 °C 29.75 in /  1007.3 hPa Calm     70 % 0.00 in /  0 mm
19:36 78.2 °F /  25.7 °C 67.6 °F /  19.8 °C 29.74 in /  1007 hPa Calm   1.0 mph /  1.6 km/h 70 % 0.00 in /  0 mm
19:41 78.1 °F /  25.6 °C 67.5 °F /  19.7 °C 29.75 in /  1007.3 hPa Calm     70 % 0.00 in /  0 mm
19:46 77.9 °F /  25.5 °C 67.8 °F /  19.9 °C 29.75 in /  1007.3 hPa Calm     71 % 0.00 in /  0 mm
19:51 77.8 °F /  25.4 °C 67.6 °F /  19.8 °C 29.76 in /  1007.7 hPa Calm     71 % 0.00 in /  0 mm
19:56 77.7 °F /  25.4 °C 67.5 °F /  19.7 °C 29.75 in /  1007.3 hPa Calm     71 % 0.00 in /  0 mm
20:01 77.5 °F /  25.3 °C 67.8 °F /  19.9 °C 29.76 in /  1007.7 hPa Calm     72 % 0.00 in /  0 mm
20:06 77.3 °F /  25.2 °C 68.0 °F /  20 °C 29.75 in /  1007.3 hPa Calm     73 % 0.00 in /  0 mm
20:11 77.2 °F /  25.1 °C 68.3 °F /  20.2 °C 29.75 in /  1007.3 hPa Calm     74 % 0.00 in /  0 mm
20:13 77.1 °F /  25.1 °C 68.2 °F /  20.1 °C 29.76 in /  1007.7 hPa Calm     74 % 0.00 in /  0 mm
20:18 77.0 °F /  25 °C 68.5 °F /  20.3 °C 29.75 in /  1007.3 hPa Calm     75 % 0.00 in /  0 mm
20:23 76.8 °F /  24.9 °C 68.7 °F /  20.4 °C 29.75 in /  1007.3 hPa Calm     76 % 0.00 in /  0 mm
20:28 76.6 °F /  24.8 °C 68.8 °F /  20.4 °C 29.75 in /  1007.3 hPa Calm     77 % 0.00 in /  0 mm
20:34 76.5 °F /  24.7 °C 69.1 °F /  20.6 °C 29.76 in /  1007.7 hPa Calm     78 % 0.00 in /  0 mm
20:39 76.3 °F /  24.6 °C 68.9 °F /  20.5 °C 29.76 in /  1007.7 hPa Calm     78 % 0.00 in /  0 mm
20:44 76.1 °F /  24.5 °C 69.1 °F /  20.6 °C 29.76 in /  1007.7 hPa Calm     79 % 0.00 in /  0 mm
20:49 76.0 °F /  24.4 °C 69.4 °F /  20.8 °C 29.76 in /  1007.7 hPa West 0.1 mph /  0.2 km/h 1.2 mph /  1.9 km/h 80 % 0.00 in /  0 mm
20:54 75.9 °F /  24.4 °C 69.6 °F /  20.9 °C 29.76 in /  1007.7 hPa Calm     81 % 0.00 in /  0 mm
20:59 75.7 °F /  24.3 °C 69.5 °F /  20.8 °C 29.77 in /  1008 hPa Calm     81 % 0.00 in /  0 mm
21:04 75.6 °F /  24.2 °C 69.4 °F /  20.8 °C 29.76 in /  1007.7 hPa Calm     81 % 0.00 in /  0 mm
21:09 75.5 °F /  24.2 °C 69.6 °F /  20.9 °C 29.77 in /  1008 hPa Calm     82 % 0.00 in /  0 mm
21:14 75.4 °F /  24.1 °C 69.9 °F /  21.1 °C 29.77 in /  1008 hPa Calm     83 % 0.00 in /  0 mm
21:19 75.3 °F /  24.1 °C 69.8 °F /  21 °C 29.77 in /  1008 hPa Calm     83 % 0.00 in /  0 mm
21:24 75.2 °F /  24 °C 69.7 °F /  20.9 °C 29.77 in /  1008 hPa Calm     83 % 0.00 in /  0 mm
21:29 75.1 °F /  23.9 °C 69.6 °F /  20.9 °C 29.76 in /  1007.7 hPa Calm     83 % 0.00 in /  0 mm
21:34 75.0 °F /  23.9 °C 69.5 °F /  20.8 °C 29.76 in /  1007.7 hPa Calm     83 % 0.00 in /  0 mm
21:44 74.9 °F /  23.8 °C 69.4 °F /  20.8 °C 29.75 in /  1007.3 hPa Calm     83 % 0.00 in /  0 mm
21:49 74.8 °F /  23.8 °C 69.3 °F /  20.7 °C 29.75 in /  1007.3 hPa Calm     83 % 0.00 in /  0 mm
21:54 74.7 °F /  23.7 °C 69.5 °F /  20.8 °C 29.75 in /  1007.3 hPa Calm     84 % 0.00 in /  0 mm
21:59 74.6 °F /  23.7 °C 69.4 °F /  20.8 °C 29.75 in /  1007.3 hPa Calm     84 % 0.00 in /  0 mm
22:04 74.5 °F /  23.6 °C 69.7 °F /  20.9 °C 29.75 in /  1007.3 hPa Calm     85 % 0.00 in /  0 mm
22:09 74.4 °F /  23.6 °C 69.6 °F /  20.9 °C 29.75 in /  1007.3 hPa Calm     85 % 0.00 in /  0 mm
22:14 74.3 °F /  23.5 °C 69.8 °F /  21 °C 29.75 in /  1007.3 hPa Calm     86 % 0.00 in /  0 mm
22:19 74.2 °F /  23.4 °C 69.7 °F /  20.9 °C 29.75 in /  1007.3 hPa Calm     86 % 0.00 in /  0 mm
22:24 74.2 °F /  23.4 °C 70.1 °F /  21.2 °C 29.75 in /  1007.3 hPa Calm     87 % 0.00 in /  0 mm
22:30 74.1 °F /  23.4 °C 70.0 °F /  21.1 °C 29.76 in /  1007.7 hPa Calm   1.2 mph /  1.9 km/h 87 % 0.00 in /  0 mm
22:35 74.0 °F /  23.3 °C 69.9 °F /  21.1 °C 29.76 in /  1007.7 hPa Calm     87 % 0.00 in /  0 mm
22:45 73.9 °F /  23.3 °C 70.5 °F /  21.4 °C 29.75 in /  1007.3 hPa Calm     89 % 0.00 in /  0 mm
22:50 73.8 °F /  23.2 °C 70.4 °F /  21.3 °C 29.75 in /  1007.3 hPa Calm     89 % 0.00 in /  0 mm
22:55 73.8 °F /  23.2 °C 70.4 °F /  21.3 °C 29.75 in /  1007.3 hPa Calm     89 % 0.00 in /  0 mm
23:00 73.8 °F /  23.2 °C 70.4 °F /  21.3 °C 29.75 in /  1007.3 hPa Calm     89 % 0.00 in /  0 mm
23:05 73.8 °F /  23.2 °C 70.4 °F /  21.3 °C 29.75 in /  1007.3 hPa Calm     89 % 0.00 in /  0 mm
23:10 73.7 °F /  23.2 °C 70.3 °F /  21.3 °C 29.75 in /  1007.3 hPa Calm     89 % 0.00 in /  0 mm
23:15 73.7 °F /  23.2 °C 70.3 °F /  21.3 °C 29.75 in /  1007.3 hPa Calm     89 % 0.00 in /  0 mm
23:20 73.7 °F /  23.2 °C 70.6 °F /  21.4 °C 29.75 in /  1007.3 hPa Calm     90 % 0.00 in /  0 mm
23:25 73.7 °F /  23.2 °C 70.3 °F /  21.3 °C 29.75 in /  1007.3 hPa Calm     89 % 0.00 in /  0 mm
23:30 73.7 °F /  23.2 °C 70.3 °F /  21.3 °C 29.75 in /  1007.3 hPa Calm     89 % 0.00 in /  0 mm
23:36 73.7 °F /  23.2 °C 70.3 °F /  21.3 °C 29.75 in /  1007.3 hPa Calm     89 % 0.00 in /  0 mm
23:41 73.6 °F /  23.1 °C 70.2 °F /  21.2 °C 29.75 in /  1007.3 hPa Calm     89 % 0.00 in /  0 mm
23:45 73.6 °F /  23.1 °C 70.5 °F /  21.4 °C 29.75 in /  1007.3 hPa Calm     90 % 0.00 in /  0 mm
23:50 73.5 °F /  23.1 °C 70.4 °F /  21.3 °C 29.75 in /  1007.3 hPa Calm     90 % 0.00 in /  0 mm
23:55 73.5 °F /  23.1 °C 70.4 °F /  21.3 °C 29.75 in /  1007.3 hPa Calm     90 % 0.00 in /  0 mm
23:59 73.5 °F /  23.1 °C 70.4 °F /  21.3 °C 29.75 in /  1007.3 hPa Calm   1.0 mph /  1.6 km/h 90 % 0.00 in /  0 mm
Crab Meadow Weather
Compliments of Weather Underground - 3 mb

Script developed by  Jim McMurry - jmcmurry@mwt.net Adapted for the template by  Wim van der Kuil - Leuven-Template.eu

Extremes: The highest temperature ever recorded in the United States was 134 degrees F at Greenland Ranch in Death Valley, California.